Home > Weather > Pudukkottai > Past weeks

Flag for India Past Weather in Pudukkottai, Tamil Nadu, India — Yesterday and Last 2 Weeks

Now
95 °F

Scattered clouds.


Feels Like: 101 °F
Forecast: 81 / 95 °F
Wind: 15 mph from West

Location: Tiruchchirapalli

Current Time: Jun 27, 2016 at 4:52:24 PM

Latest Report: Jun 27, 2016 at 4:30 PM


Visibility: 4 mi

Pressure: 29.62 "Hg

Humidity: 44%

Dew Point: 70 °F

Location of PudukkottaiLocation

Past Weather in Pudukkottai — Graph

°F

Pudukkottai Temperature Yesterday

Maximum temperature yesterday: 95 °F (at 2:30 PM)
Minimum temperature yesterday: 79 °F (at 5:30 AM)
Average temperature yesterday: 86 °F

High & Low Weather Summary for the Past Weeks

 TemperatureHumidityPressure
High100 °F (Jun 15, 2:30 PM)94% (Jun 18, 10:30 PM)29.80 "Hg (Jun 18, 10:30 PM)
Low77 °F (Jun 18, 10:30 PM)31% (Jun 15, 4:00 PM)29.56 "Hg (Jun 17, 3:30 PM)
Average87 °F56%29.69 "Hg
* Reported Jun 12 3:30 PM — Jun 27 3:30 PM, Pudukkottai, Weather by CustomWeather, © 2016

Note: Actual official high and low records may vary slightly from our data, if they occured in-between our weather recording intervals... More about our weather records

Advertising

Pudukkottai Weather History for the Previous 24 Hours

Scroll right to see more
 ConditionsComfort  
Time TempWeatherWind HumidityBarometerVisibility
3:30 PM
Mon, Jun 27
95 °FScattered clouds.14 mph44%29.62 "Hg4 mi
3:00 PM97 °FScattered clouds.15 mph42%29.62 "Hg4 mi
2:30 PM97 °FScattered clouds.12 mph42%29.65 "Hg4 mi
2:00 PM97 °FScattered clouds.14 mph42%29.65 "Hg4 mi
1:30 PM97 °FScattered clouds.18 mph42%29.65 "Hg4 mi
1:00 PM95 °FScattered clouds.13 mph44%29.68 "Hg4 mi
12:30 PM95 °FScattered clouds.18 mph44%29.68 "Hg4 mi
12:00 PM93 °FScattered clouds.18 mph47%29.68 "Hg4 mi
11:30 AM93 °FScattered clouds.14 mph47%29.68 "Hg4 mi
11:00 AM93 °FScattered clouds.14 mph47%29.71 "Hg4 mi
10:30 AM91 °FScattered clouds.16 mph49%29.71 "Hg4 mi
10:00 AM90 °FScattered clouds.15 mph52%29.71 "Hg4 mi
9:30 AM90 °FScattered clouds.21 mph52%29.71 "Hg4 mi
9:00 AM88 °FScattered clouds.20 mph55%29.71 "Hg4 mi
8:30 AM86 °FScattered clouds.12 mph59%29.71 "Hg4 mi
8:00 AM84 °FScattered clouds.9 mph66%29.71 "Hg4 mi
7:30 AM84 °FScattered clouds.9 mph66%29.71 "Hg4 mi
7:00 AM82 °FScattered clouds.9 mph70%29.71 "Hg4 mi
6:30 AM82 °FScattered clouds.10 mph70%29.68 "Hg4 mi
6:00 AM82 °FPassing clouds.9 mph70%29.68 "Hg4 mi
5:30 AM82 °FPassing clouds.8 mph70%29.68 "Hg4 mi
5:00 AM82 °FPassing clouds.12 mph66%29.68 "Hg4 mi
4:30 AM82 °FPassing clouds.12 mph66%29.68 "Hg4 mi
4:00 AM82 °FPassing clouds.13 mph66%29.68 "Hg4 mi
3:30 AM84 °FPassing clouds.13 mph62%29.68 "Hg4 mi
3:00 AM84 °FPassing clouds.9 mph62%29.68 "Hg4 mi
2:30 AM84 °FPassing clouds.9 mph62%29.68 "Hg4 mi
2:00 AM84 °FPassing clouds.9 mph62%29.71 "Hg4 mi
1:30 AM84 °FPassing clouds.8 mph62%29.71 "Hg4 mi
1:00 AM84 °FPassing clouds.8 mph62%29.71 "Hg4 mi
12:30 AM84 °FPassing clouds.8 mph62%29.71 "Hg4 mi
12:00 AM84 °FPassing clouds.8 mph62%29.74 "Hg4 mi
11:30 PM
Sun, Jun 26
86 °FPassing clouds.13 mph59%29.74 "Hg4 mi
11:00 PM86 °FPassing clouds.13 mph55%29.74 "Hg4 mi
10:30 PM86 °FPassing clouds.8 mph55%29.74 "Hg4 mi
10:00 PM86 °FPassing clouds.9 mph55%29.74 "Hg4 mi
9:30 PM88 °FPassing clouds.10 mph52%29.74 "Hg4 mi
9:00 PM88 °FPassing clouds.12 mph55%29.74 "Hg4 mi
8:30 PM88 °FPassing clouds.12 mph55%29.71 "Hg4 mi
8:00 PM88 °FPassing clouds.12 mph55%29.71 "Hg4 mi
7:30 PM88 °FPassing clouds.9 mph55%29.68 "Hg4 mi
7:00 PM90 °FScattered clouds.9 mph52%29.68 "Hg4 mi
6:30 PM90 °FScattered clouds.9 mph52%29.68 "Hg4 mi
6:00 PM91 °FScattered clouds.9 mph46%29.68 "Hg4 mi
5:30 PM93 °FScattered clouds.9 mph44%29.68 "Hg5 mi
5:00 PM93 °FScattered clouds.12 mph47%29.65 "Hg5 mi
4:30 PM95 °FScattered clouds.10 mph44%29.65 "Hg5 mi
4:00 PM95 °FScattered clouds.12 mph44%29.65 "Hg5 mi
Weather by CustomWeather, © 2016

See weather overviewHow to use our weather pages